Notices

What's New in latest Release from April 7th, 2021:

- Updated Glossary, including Speed of Maximum Gust, and Total Hourly Precipitation

- Updated national and regional climate services offices contacts and prices information

- Addition of station inventory lists for 1981-2010, 1971-2000, and 1961-1990 Normals.

If you haven't already, please take our survey and provide feedback about our website: https://eccc.sondage-survey.ca/f/LanguageSelection.aspx?s=442ca660-fcf1-47c0-95a9-59707d6fd709

Hourly Data Report for January 22, 2021

EDMUNDSTON
NEW BRUNSWICK
Current Station Operator: ECCC - MSC

47°25'00.000" N
68°19'28.040" W
154.20 m
8101303
71590
ERM

Download Data

Hourly Data (January 2021)
Hourly Data Report for January 22, 2021
TIME
LST
Temp Definition
°C
Dew Point Definition
°C
Rel Hum Definition
%
Precip. Amount Definition
mm

Wind Dir Definition
10's deg

Wind Spd Definition
km/h
Visibility Definition
km
Stn Press Definition
kPa
Hmdx Definition


Wind Chill Definition


Weather Definition


00:00 -22.6 -24.8 82 0.0 0 1   98.53   -24 LegendNANA
01:00 -22.8 -25.0 83 0.0 0 1   98.50   -24 LegendNANA
02:00 -23.3 -25.5 82 0.0 33 2   98.51   -25 LegendNANA
03:00 -23.3 -25.5 82 0.0 0 1   98.51   -24 LegendNANA
04:00 -21.9 -24.2 81 0.0   0   98.51     LegendNANA
05:00 -21.1 -23.5 81 0.0   0   98.50     LegendNANA
06:00 -20.0 -22.4 81 0.0   0   98.47     LegendNANA
07:00 -19.2 -21.5 82 0.0   0   98.49     LegendNANA
08:00 -18.5 -20.7 82 0.0   0   98.51     LegendNANA
09:00 -17.4 -19.6 83 0.0   0   98.54     LegendNANA
10:00 -14.7 -16.8 83 0.2   0   98.58     LegendNANA
11:00 -12.6 -15.0 82 0.2 0 1   98.59   -13 LegendNANA
12:00 -10.5 -13.1 82 0.0   0   98.54     LegendNANA
13:00 -8.4 -11.8 77 0.0 12 4   98.49   -11 LegendNANA
14:00 -7.8 -11.5 75 0.0 11 9   98.48   -12 LegendNANA
15:00 -7.2 -10.3 79 0.2 13 6   98.48   -10 LegendNANA
16:00 -7.0 -10.0 79 0.2 11 3   98.52   -9 LegendNANA
17:00 -7.4 -10.1 81 0.2 11 2   98.56   -8 LegendNANA
18:00 -7.9 -9.5 88 0.2 28 2   98.63   -9 LegendNANA
19:00 -8.4 -9.7 90 0.2   0   98.66     LegendNANA
20:00 -9.8 -11.4 89 0.0 34 2   98.67   -11 LegendNANA
21:00 -10.7 -11.9 91 0.2 0 1   98.67   -11 LegendNANA
22:00 -9.5 -10.9 90 0.0   0   98.69     LegendNANA
23:00 -9.4 -10.8 89 0.2   0   98.70     LegendNANA

Notes on Data Quality.

Legend

  • E = Estimated
  • M = Missing
  • NA = Not Available*
  • [empty] = Indicates an unobserved value
Date modified: